Regional Weather Roundup
Issued by NWS

Home | Current Version | Previous Version | Text Only | Print | Product List | Glossary On
Versions: 1 2 3 4 5 6 7 8 9 10 11 12 13 14 15 16 17 18 19 20 21 22 23 24 25 26 27 28 29 30 31 32 33 34 35 36 37 38 39 40 41 42 43 44 45 46 47 48 49 50
000
ASUS43 KLMK 230102
RWRKY
KENTUCKY REGIONAL WEATHER ROUNDUP
NATIONAL WEATHER SERVICE LOUISVILLE KY
800 PM EST WED FEB 22 2017

NOTE "FAIR" INDICATES FEW OR NO CLOUDS BELOW 12,000 FEET
WITH NO SIGNIFICANT WEATHER AND/OR OBSTRUCTIONS TO VISIBILITY.

KYZ001>023-026-027-061>063-070>075-230200-
WESTERN AND SOUTH CENTRAL KENTUCKY

CITY           SKY/WX    TMP DP  RH WIND       PRES   REMARKS
PADUCAH        PTCLDY    65  54  67 SW5       29.79R
HENDERSON      CLOUDY    63  54  72 SW3       29.79S
OWENSBORO      CLOUDY    66  57  72 SE6       29.81R
HOPKINSVILLE   CLEAR     65  55  69 S6        29.82R
BOWLING GREEN  CLOUDY    67  57  70 S8        29.84R
GLASGOW        NOT AVBL
$$

KYZ024-025-028>034-038-045-046-053-230200-
NORTH CENTRAL KENTUCKY

CITY           SKY/WX    TMP DP  RH WIND       PRES   REMARKS
LOUISVILLE/SDF CLOUDY    68  55  63 S6        29.82R
LOUISVILLE/LOU CLOUDY    68  56  65 S5        29.83R
FORT KNOX      CLOUDY    60  57  89 CALM      29.82R
$$

KYZ035>037-039>044-047>052-055>060-089>105-230200-
NORTHEAST KENTUCKY

CITY           SKY/WX    TMP DP  RH WIND       PRES   REMARKS
LEXINGTON      CLOUDY    64  55  72 S10       29.85R
COVINGTON      PTCLDY    61  55  81 S6        29.82R
FRANKFORT      CLOUDY    64  54  69 CALM      29.82R
$$

KYZ054-064>069-076>088-106>120-230200-
SOUTHEAST KENTUCKY

CITY           SKY/WX    TMP DP  RH WIND       PRES   REMARKS
JACKSON        CLEAR     57  53  86 CALM      29.87S
LONDON         PTCLDY    59  53  80 S5        29.88R
SOMERSET       CLOUDY    61  54  77 CALM      29.88S
MIDDLESBORO    CLOUDY    58  55  88 CALM      29.92S
MONTICELLO     CLOUDY    56  54  93 W10       29.89R
$$




USA.gov is the U.S. government's official web portal to all federal, state and local government web resources and services.